Wetbulb
24.69 25.51 26.24 26.94 27.52 27.85 28.12 28.34 28.65 28.96 28.99 28.74 28.30 27.96 27.65 27.16 26.66 26.35 26.33 26.32 26.10 26.07 26.13 26.08 25.91 25.85 25.80 25.90 25.78 25.70 25.64 25.67 25.55 25.54 25.43 25.14 25.03 25.15 25.38 25.58 25.81 25.98 26.12 26.28 26.41 26.35 26.16 26.05 26.05 26.08 26.05 25.99 26.02 26.18 26.46 26.84 27.02 27.16 27.26 27.47 27.70 27.89 27.90 27.72 27.89 28.60 29.40 30.24 31.42
23.76 24.45 25.32 26.24 26.85 27.27 27.60 27.82 28.04 28.30 28.58 28.66 28.47 28.08 27.63 27.16 26.69 26.27 26.05 25.99 25.99 25.99 25.94 25.91 25.77 25.51 25.34 25.45 25.51 25.51 25.36 25.22 25.02 24.94 24.83 24.52 24.57 24.59 24.68 24.77 24.94 25.14 25.31 25.48 25.59 25.62 25.46 25.32 25.13 25.02 24.99 25.01 24.99 25.07 25.33 25.86 26.07 26.01 25.82 25.94 26.49 26.78 26.96 26.70 26.82 27.42 28.08 28.72 29.79
23.24 23.78 24.29 24.73 25.27 25.83 26.44 26.77 26.88 27.08 27.47 28.05 28.16 27.99 27.66 27.16 26.74 26.38 26.02 25.91 26.05 25.94 25.80 25.51 25.32 25.20 25.11 24.96 25.16 25.18 25.15 25.01 24.87 24.65 24.41 24.24 24.10 24.09 24.02 24.06 24.09 24.34 24.51 24.77 24.85 24.86 24.84 24.77 24.54 24.32 24.06 24.00 23.92 23.98 24.33 24.95 25.34 25.20 24.90 24.83 25.37 25.82 25.87 25.82 25.96 26.45 26.92 27.35 27.88
22.70 23.01 23.38 23.55 23.74 24.25 24.96 25.83 25.99 26.32 26.86 27.53 27.69 27.58 27.38 27.05 26.77 26.46 26.13 25.96 25.74 25.66 25.38 25.11 25.02 25.02 24.93 24.71 24.70 24.84 24.86 25.06 24.78 24.45 24.13 24.02 23.89 23.70 23.69 23.55 23.44 23.53 23.63 23.93 24.02 24.16 24.23 24.21 24.04 23.78 23.41 23.08 23.00 23.16 23.56 24.11 24.46 24.54 24.45 24.53 24.74 24.87 24.92 25.14 25.37 25.68 25.90 26.07 26.47
22.13 22.45 22.79 23.02 23.06 23.49 24.26 24.91 25.18 25.68 26.30 27.00 27.17 27.19 27.16 26.85 26.52 26.24 25.99 25.74 25.48 25.29 25.21 25.00 24.85 24.77 24.64 24.57 24.35 24.32 24.45 24.62 24.67 24.28 23.88 23.66 23.59 23.58 23.51 23.26 23.06 23.02 22.99 23.14 23.30 23.49 23.60 23.62 23.48 23.28 22.89 22.75 22.65 22.76 23.07 23.55 23.67 23.81 23.87 24.21 24.28 24.30 24.32 24.51 24.79 25.09 25.17 25.25 25.51
21.27 21.51 21.95 22.42 22.50 23.01 23.72 24.26 24.51 24.98 25.68 26.18 26.21 26.27 26.44 26.52 26.18 25.82 25.45 25.23 25.17 25.23 25.24 25.13 24.78 24.54 24.37 24.09 24.01 23.95 23.89 24.00 24.09 23.88 23.61 23.31 23.29 23.21 23.09 22.94 22.81 22.67 22.68 22.64 22.77 22.82 22.92 22.85 22.79 22.63 22.60 22.52 22.34 22.47 22.83 23.30 23.18 23.09 23.14 23.35 23.61 23.78 23.83 23.82 24.14 24.35 24.54 24.44 24.40
20.20 20.51 20.74 21.18 21.63 22.15 22.68 23.19 23.90 24.43 24.89 25.17 25.00 25.22 25.59 25.82 25.51 25.17 25.02 25.08 25.20 25.15 24.99 25.02 24.55 24.14 23.89 23.56 23.45 23.47 23.47 23.55 23.59 23.54 23.35 23.12 22.97 22.79 22.72 22.62 22.49 22.30 22.24 22.15 22.22 22.19 22.31 22.27 22.03 21.91 21.99 22.13 21.98 22.06 22.31 22.56 22.51 22.40 22.24 22.25 22.93 23.26 23.31 23.23 23.63 23.77 23.76 23.56 23.57
19.52 19.68 19.81 19.99 20.51 20.93 21.38 22.03 22.90 23.47 23.91 24.19 23.97 24.19 24.74 25.25 25.05 24.91 24.82 24.94 24.83 24.75 24.67 24.49 23.98 23.65 23.47 23.20 23.06 23.08 23.10 23.13 23.13 23.13 23.08 23.00 22.71 22.51 22.36 22.29 22.12 21.96 21.88 21.88 21.73 21.65 21.60 21.72 21.48 21.20 21.11 21.23 21.28 21.40 21.58 21.95 21.84 21.67 21.52 21.51 22.11 22.53 22.86 22.81 23.01 23.12 23.05 22.84 22.87
19.04 19.01 19.07 19.23 19.53 19.77 20.13 20.74 21.54 22.19 22.51 22.62 22.63 23.22 24.02 24.82 24.77 24.71 24.56 24.60 24.66 24.58 24.39 24.14 23.76 23.51 23.27 22.91 22.75 22.69 22.74 22.76 22.64 22.73 22.79 22.69 22.40 22.14 22.01 21.93 21.70 21.62 21.59 21.63 21.39 21.23 21.14 21.12 20.86 20.67 20.64 20.64 20.61 20.73 20.99 21.35 21.14 20.93 20.90 21.04 21.31 21.62 22.04 22.31 22.50 22.47 22.40 22.33 22.18
17.88 18.00 18.32 18.68 18.80 18.98 19.19 19.56 20.36 20.87 21.18 21.47 21.61 22.19 23.07 24.22 24.28 24.28 24.34 24.45 24.39 24.22 23.94 23.64 23.49 23.23 23.07 22.82 22.57 22.49 22.51 22.56 22.55 22.49 22.49 22.44 22.26 21.97 21.74 21.57 21.32 21.13 21.11 21.31 21.23 20.95 20.71 20.55 20.23 20.11 20.15 20.23 20.15 20.24 20.51 20.80 20.58 20.37 20.38 20.63 20.75 20.83 21.02 21.53 21.86 21.98 21.91 21.99 21.67
16.35 16.79 17.23 17.79 17.73 18.09 18.56 18.84 19.49 19.85 20.06 20.40 20.54 21.04 21.63 22.35 22.80 23.26 23.68 23.76 23.53 23.26 23.12 23.22 23.04 22.84 22.66 22.56 22.48 22.39 22.39 22.33 22.31 22.20 22.05 21.99 21.94 21.77 21.61 21.48 21.18 20.89 20.72 20.84 20.94 20.76 20.42 20.04 19.71 19.50 19.56 19.95 19.90 19.97 20.13 20.29 20.18 20.06 20.01 20.25 20.40 20.36 20.33 20.59 21.08 21.27 21.41 21.56 21.38
15.55 15.97 16.26 16.46 16.64 17.05 17.71 18.16 18.80 18.80 18.68 18.72 19.16 19.69 20.14 20.64 21.13 21.68 22.21 22.30 22.42 22.44 22.56 22.82 22.69 22.42 22.30 22.32 22.19 22.20 22.12 21.87 21.81 21.83 21.75 21.60 21.58 21.49 21.46 21.44 21.14 20.87 20.64 20.64 20.72 20.56 20.15 19.57 19.29 19.03 18.99 19.30 19.49 19.56 19.62 19.84 19.78 19.62 19.61 19.70 19.81 19.68 19.60 19.86 20.21 20.51 20.74 20.98 20.86
14.88 15.35 15.70 15.82 15.79 16.23 16.65 17.18 17.70 17.79 17.70 17.58 17.79 18.14 18.64 19.36 20.06 20.44 20.55 20.67 21.35 21.65 21.80 22.18 22.33 22.12 21.78 21.68 21.64 21.52 21.42 21.31 21.17 21.17 21.22 21.26 21.23 21.22 21.14 21.16 21.13 20.92 20.71 20.57 20.56 20.31 19.88 19.51 19.11 18.70 18.54 18.72 18.87 19.12 19.31 19.28 19.12 19.00 18.86 18.86 18.85 18.84 18.91 19.07 19.50 19.82 20.01 20.21 20.06
14.42 14.59 14.79 14.91 15.06 15.50 16.06 16.18 17.08 17.34 17.23 16.74 16.88 16.99 17.28 17.90 18.93 19.40 19.37 19.19 19.87 20.55 20.97 20.94 21.41 21.77 21.85 21.68 21.24 20.91 20.70 20.66 20.39 20.28 20.40 20.70 20.91 20.87 20.86 20.91 20.98 20.93 20.76 20.60 20.33 20.05 19.74 19.34 19.08 18.75 18.52 18.37 18.49 18.64 18.91 18.91 18.76 18.56 18.31 18.09 18.00 17.98 18.18 18.43 18.89 19.21 19.34 19.43 19.39
14.13 14.15 14.06 14.15 14.42 15.06 15.53 15.30 16.37 16.73 16.67 16.56 16.58 16.55 16.66 17.16 17.75 18.31 18.54 18.07 18.37 19.58 20.46 19.42 19.66 20.58 21.62 22.12 21.26 20.68 20.19 20.08 19.64 19.47 19.45 19.76 20.06 20.27 20.46 20.61 20.69 20.74 20.73 20.46 20.15 19.88 19.68 19.29 18.99 18.72 18.55 18.26 18.17 18.28 18.45 18.53 18.37 18.24 18.05 17.83 17.58 17.58 17.60 17.74 18.08 18.43 18.80 18.88 18.95
13.57 13.69 13.71 13.80 14.06 14.50 14.88 15.08 15.93 16.20 16.17 16.41 16.32 16.26 16.28 16.49 16.78 17.40 17.87 17.40 17.27 18.19 19.01 18.42 18.18 18.68 19.75 21.50 21.29 20.64 19.85 19.43 19.07 18.60 18.26 18.30 18.66 19.13 19.55 19.94 20.24 20.38 20.30 19.99 19.88 19.72 19.63 19.45 19.24 18.88 18.57 18.32 18.19 18.07 18.11 18.05 17.90 17.76 17.57 17.42 17.25 17.11 17.10 17.09 17.13 17.44 17.93 18.44 18.37
12.85 12.96 13.07 13.27 13.51 13.86 14.15 14.64 15.31 15.75 15.90 15.76 15.74 15.76 15.82 16.11 16.49 16.99 17.43 17.34 16.54 17.30 18.28 18.60 18.16 18.03 18.39 19.72 20.64 20.46 19.82 19.12 18.45 17.84 17.30 17.03 17.08 17.55 18.05 18.62 19.55 20.11 19.99 19.29 19.29 19.29 19.33 19.48 19.39 19.20 18.84 18.63 18.38 18.25 17.96 17.67 17.54 17.27 16.99 16.87 16.66 16.49 16.37 16.35 15.95 16.15 16.62 17.32 17.50
12.05 12.23 12.52 12.80 13.00 13.16 13.51 14.15 14.64 14.82 14.79 14.77 15.12 15.21 15.30 15.70 15.90 16.26 16.58 16.85 16.72 17.21 17.77 17.63 17.24 17.09 17.47 18.51 19.84 20.55 20.32 19.02 17.91 17.06 16.36 15.97 15.84 16.07 16.36 16.83 18.41 19.69 20.20 19.05 18.96 19.04 19.24 19.40 19.29 19.22 18.99 18.88 18.69 18.46 18.11 17.58 17.29 16.91 16.55 16.28 15.96 15.68 15.32 15.00 14.55 14.69 15.11 15.69 16.44
10.97 11.44 11.70 12.08 12.21 12.54 13.27 14.18 14.38 14.18 14.06 13.95 14.30 14.74 14.98 15.18 15.30 15.50 15.53 15.26 16.25 16.48 16.26 15.73 15.62 16.06 16.97 18.48 20.14 20.94 20.61 18.93 17.29 16.33 15.66 15.27 15.21 15.29 15.34 15.65 17.25 19.51 20.72 19.56 19.40 19.35 19.46 19.42 19.17 18.87 18.70 18.70 18.61 18.32 17.99 17.44 16.98 16.67 16.22 15.88 15.23 14.63 14.18 13.81 13.40 13.32 13.54 13.96 14.86
9.99 10.36 10.64 10.91 11.31 11.92 12.72 13.80 13.71 13.45 13.42 13.69 13.81 14.25 14.78 14.96 14.90 14.77 14.47 14.22 15.18 15.68 15.55 14.96 14.79 15.21 16.41 18.30 19.78 19.84 19.13 18.26 16.80 15.81 15.32 15.06 14.93 14.66 14.55 14.87 17.21 19.52 20.86 20.62 20.34 19.92 19.47 19.21 18.97 18.58 18.09 17.96 17.90 17.71 17.38 17.13 16.69 16.30 16.00 15.88 14.97 14.23 13.81 13.77 13.82 13.84 13.89 14.22 14.77
9.46 9.74 9.92 10.12 10.47 11.00 11.79 12.76 12.58 12.49 12.49 13.09 13.50 14.03 14.47 14.67 14.54 14.15 13.58 13.37 13.59 13.70 13.73 13.67 13.62 14.41 15.64 17.14 17.59 17.12 16.58 16.76 15.93 15.15 14.66 14.46 14.22 14.03 14.10 14.59 16.92 19.00 20.33 20.26 20.18 19.89 19.43 19.18 18.80 18.42 17.91 17.31 17.10 17.01 17.07 16.90 16.34 15.93 15.84 15.88 15.52 15.09 14.75 14.62 14.61 14.57 14.59 14.81 15.08
9.13 9.21 9.39 9.68 9.94 10.62 11.41 12.12 11.92 11.98 12.25 12.95 13.65 13.92 14.09 14.32 14.19 13.71 13.14 12.66 12.68 12.35 12.20 12.46 13.11 13.93 14.87 15.48 15.26 14.84 14.69 15.11 14.84 14.35 13.91 13.39 13.28 13.39 13.72 14.16 16.48 18.57 19.80 19.31 19.49 19.46 19.41 19.48 19.03 18.57 17.83 16.69 16.00 16.09 16.39 16.36 15.74 15.39 15.28 15.26 15.13 15.09 14.99 14.82 14.69 14.76 14.79 15.08 15.38
8.33 8.33 8.60 9.24 9.48 10.53 11.41 11.55 11.61 12.05 12.84 13.63 14.01 13.98 14.01 14.23 13.75 13.18 12.70 12.39 13.08 13.00 12.82 13.04 13.51 13.98 14.25 14.43 14.10 13.66 13.34 13.19 13.38 13.38 13.12 12.55 12.07 12.16 12.51 12.81 15.85 18.03 19.54 20.17 20.88 20.94 20.70 20.60 19.95 19.10 17.96 16.05 14.86 14.65 14.86 15.01 14.80 14.54 14.42 14.42 14.51 14.60 14.71 14.87 14.68 14.72 15.01 15.05 15.50
7.45 7.47 7.83 8.82 8.95 9.24 9.83 10.62 11.59 12.49 13.10 13.57 13.74 13.81 13.81 13.94 13.49 13.00 12.70 12.95 13.26 13.67 14.16 14.60 14.78 14.87 14.73 14.48 13.91 13.20 12.40 11.85 11.87 12.16 12.42 12.33 11.94 11.74 12.03 12.99 15.13 17.44 19.74 22.01 24.10 24.37 23.35 21.92 20.71 19.65 18.35 16.52 14.48 13.50 13.17 13.23 13.10 13.02 13.10 13.43 13.71 14.06 14.30 14.59 14.53 14.69 14.69 14.42 14.85
6.75 7.03 7.76 8.80 8.84 9.06 9.64 10.71 11.61 12.14 12.58 12.95 13.02 13.34 13.58 13.63 12.96 12.48 12.63 13.59 14.06 14.37 14.73 15.06 15.03 14.98 14.67 13.97 13.69 13.05 12.14 11.11 11.04 11.06 11.33 11.55 11.55 11.63 12.05 13.01 14.30 16.73 20.20 24.56 26.97 27.62 26.80 24.86 22.49 20.14 17.98 16.34 14.13 13.19 12.93 13.02 12.60 12.36 12.36 12.82 13.15 13.37 13.81 14.29 14.66 15.04 15.09 14.76 14.35
6.12 6.66 7.47 8.16 8.36 8.78 9.37 10.29 10.73 11.17 11.61 12.05 12.58 12.91 12.88 12.67 11.79 11.66 12.12 13.16 13.63 14.07 14.25 14.07 14.16 14.87 14.93 13.07 12.65 12.16 11.55 10.56 10.20 9.88 9.72 9.64 10.35 11.11 11.79 12.42 14.36 17.33 21.35 26.32 27.41 27.95 27.77 27.11 24.65 21.43 17.94 14.81 13.28 12.93 13.10 12.93 12.71 12.54 12.56 12.54 12.56 12.65 12.91 13.55 13.99 14.43 14.87 15.22 13.89
5.68 6.31 7.01 7.72 8.10 8.69 9.31 9.68 10.29 10.91 11.55 11.92 12.45 12.58 12.40 11.63 11.17 11.46 11.90 12.21 12.68 13.12 13.32 13.16 13.57 14.83 14.96 12.10 11.79 11.50 11.06 10.16 9.83 9.30 8.84 8.45 9.25 10.15 10.93 11.35 13.22 17.60 22.88 27.19 27.69 27.89 27.76 27.32 25.82 23.24 19.53 14.86 13.04 12.51 12.49 12.23 12.25 12.25 12.27 12.10 11.83 11.66 11.85 12.14 12.80 13.53 14.22 14.52 13.54
5.25 5.69 6.13 6.71 8.01 8.89 9.24 9.15 9.88 10.51 11.17 11.44 11.61 11.83 11.96 11.61 11.63 12.03 12.14 11.72 12.01 12.21 12.39 12.26 13.24 13.33 12.63 11.31 11.06 10.67 10.14 9.44 8.93 8.51 8.16 8.31 9.13 9.49 9.64 10.14 11.50 17.14 23.66 28.21 27.91 27.83 27.70 27.31 26.24 24.59 21.83 17.24 13.48 12.10 11.81 11.35 11.35 11.19 11.02 11.13 10.84 10.73 11.02 11.44 12.10 12.74 13.27 13.37 13.28
4.51 4.51 4.95 6.13 7.85 8.82 9.15 8.89 9.46 10.03 10.49 11.02 11.55 11.79 11.98 12.20 12.58 12.51 12.29 12.05 12.05 11.81 11.59 11.26 12.50 12.04 11.06 10.84 10.29 9.63 9.17 8.73 8.05 7.50 7.40 7.81 8.63 8.83 9.18 10.01 10.76 15.79 22.42 28.12 27.77 27.66 27.53 27.00 26.01 24.94 23.26 20.50 14.99 11.70 10.25 10.25 10.14 10.05 10.23 10.32 10.05 10.14 10.51 11.15 11.70 12.16 12.52 12.85 12.93
3.88 3.43 3.58 5.50 7.26 8.47 9.08 9.19 9.50 10.14 10.98 11.88 11.95 11.79 11.70 12.14 12.49 12.29 11.81 11.57 11.24 11.48 11.64 10.98 10.96 10.80 10.60 10.20 9.41 9.04 8.93 8.56 7.59 6.96 6.76 7.16 8.85 9.45 10.23 12.33 10.84 14.25 20.41 27.24 27.52 27.52 27.24 26.77 25.73 24.72 23.30 21.46 16.70 12.65 9.90 9.15 8.89 9.06 9.52 9.70 9.61 9.81 10.25 10.89 11.24 11.68 12.18 12.42 12.20
3.25 2.67 2.94 4.60 6.80 8.21 8.93 9.02 9.59 10.60 11.50 11.99 11.68 11.61 11.61 11.79 11.87 11.54 11.19 10.73 10.73 11.77 12.55 11.57 10.89 10.42 10.14 9.41 8.80 8.80 8.75 8.29 7.59 6.87 6.59 6.72 10.21 11.17 10.56 9.35 8.89 12.69 19.05 26.38 27.07 27.21 27.05 26.66 25.65 24.53 23.17 21.41 17.00 12.62 9.50 8.71 8.34 8.45 8.71 8.98 9.35 9.63 10.07 10.80 10.84 11.17 11.48 11.08 10.65
2.34 2.05 2.50 4.51 6.52 7.85 8.56 8.95 9.50 10.34 11.06 11.42 11.66 11.79 11.83 11.22 11.02 10.71 10.51 10.69 10.71 10.87 11.20 11.52 11.52 11.26 10.73 10.09 9.39 8.95 8.58 8.12 7.83 7.40 7.04 7.13 7.77 7.83 8.01 8.77 8.30 11.85 18.18 25.94 26.82 26.99 26.74 26.43 25.51 24.28 22.95 21.39 17.22 12.64 9.11 8.15 7.97 8.06 8.43 8.78 9.15 9.42 10.05 11.06 11.00 11.08 10.93 10.28 9.86
1.89 1.80 2.41 4.23 6.17 7.40 8.29 8.75 9.24 9.98 10.71 11.42 11.72 11.88 11.59 10.47 10.12 10.03 10.32 11.20 10.78 10.23 10.03 10.89 11.24 11.22 10.86 10.23 9.79 9.42 9.15 9.06 9.22 9.61 9.76 9.08 7.65 7.08 7.52 9.26 8.17 12.48 19.51 26.00 26.69 26.72 26.42 26.18 25.17 23.99 22.74 21.14 15.73 11.02 7.93 7.49 7.36 7.62 7.99 8.23 8.87 9.42 10.03 10.34 10.60 10.54 10.10 9.59 9.63
2.34 2.53 3.34 4.58 6.10 7.06 7.59 7.87 8.36 9.08 10.01 11.04 11.52 11.59 11.13 10.05 9.75 9.95 10.82 12.23 11.20 9.90 8.99 9.24 9.59 9.68 9.39 8.93 8.75 8.73 9.42 11.19 9.17 7.22 5.88 5.99 5.81 6.56 7.52 8.01 6.65 12.82 21.32 26.07 26.69 26.69 26.32 26.16 24.98 23.79 22.34 20.46 14.16 9.77 7.32 7.32 6.88 6.90 7.16 7.51 8.32 9.13 9.83 10.16 9.68 9.27 9.12 8.96 9.37
2.60 3.44 4.50 5.20 5.92 6.27 6.54 6.56 7.12 8.11 9.28 10.34 10.82 10.95 10.64 9.94 9.64 9.95 10.89 12.93 11.90 9.79 8.09 7.81 7.83 7.85 7.76 7.56 7.65 8.16 8.82 9.35 6.69 4.44 3.08 2.98 4.08 5.81 7.22 7.60 7.52 14.25 22.33 26.05 26.69 26.64 26.24 25.99 24.86 23.44 21.31 17.84 11.85 8.32 6.77 6.67 6.51 6.42 6.60 7.05 8.02 8.72 9.07 9.25 8.81 8.68 8.80 9.07 9.37
2.25 3.62 4.88 5.39 5.66 5.83 5.83 5.94 6.42 7.32 8.48 9.43 9.85 9.90 9.85 9.68 8.96 9.02 10.01 12.32 11.11 9.48 8.10 7.85 7.45 7.28 7.28 7.28 7.26 8.42 8.77 6.27 3.74 1.49 0.69 2.13 3.20 3.99 4.95 6.16 7.64 13.80 20.98 25.46 26.44 26.50 26.18 25.86 24.78 23.09 19.99 14.44 9.68 7.32 6.25 5.81 5.92 6.09 6.34 6.86 7.82 8.42 8.57 8.50 8.52 8.77 8.92 8.93 9.67
1.15 2.88 4.15 4.95 5.22 5.48 5.68 5.87 5.94 6.49 7.30 8.18 8.44 8.51 8.58 8.89 8.45 8.17 8.71 10.80 9.19 8.89 8.87 8.27 8.01 7.83 7.66 7.22 6.67 6.85 6.52 4.13 2.03 0.95 1.12 2.94 2.20 2.55 3.73 5.57 6.18 10.47 16.94 24.03 25.82 26.20 26.00 25.84 24.81 22.39 18.20 11.59 7.76 6.32 5.99 5.74 5.65 5.83 6.27 6.69 6.82 6.80 6.79 6.74 7.26 7.87 8.29 8.41 11.20
-0.37 1.97 3.71 4.50 4.95 5.39 5.48 5.50 5.38 5.66 6.31 6.86 6.84 6.73 6.73 6.98 7.13 7.38 8.45 11.00 9.55 9.39 9.53 8.76 8.50 7.97 7.20 6.32 5.62 4.27 2.83 2.29 2.19 1.20 0.12 -0.40 -0.86 -0.07 2.00 5.25 5.69 8.30 13.61 22.64 25.34 26.01 25.87 25.72 25.05 22.29 17.50 10.52 7.45 6.40 6.42 6.27 5.64 5.99 6.60 6.62 5.97 5.76 5.74 6.04 6.39 6.82 7.49 8.44 14.39
-1.17 1.33 3.13 4.15 4.85 5.39 5.57 5.39 5.22 5.32 5.68 6.05 5.94 5.83 5.64 5.46 5.86 7.40 9.24 10.73 9.21 8.98 9.31 8.94 8.50 7.71 6.96 6.71 5.11 2.92 1.37 1.55 0.48 -0.23 -1.20 -2.62 -2.56 0.08 3.13 4.48 4.76 6.96 12.26 21.71 24.91 25.79 25.60 25.57 25.27 23.37 19.27 12.24 8.31 7.02 6.97 6.70 5.79 5.79 5.97 6.00 5.44 5.23 5.35 5.74 5.93 6.19 6.66 7.58 15.57
-1.82 0.43 2.32 3.41 4.41 4.94 5.20 5.01 4.94 4.85 5.04 5.22 5.39 5.46 5.73 6.34 7.22 9.08 10.23 8.82 7.72 7.68 7.94 8.01 7.57 7.22 7.24 7.65 4.72 2.96 2.10 1.94 0.01 -1.39 -2.44 -2.88 -1.39 5.01 8.93 2.63 2.00 4.18 9.87 19.62 24.23 25.45 25.30 25.32 25.27 24.01 20.06 11.87 8.24 7.10 7.32 7.14 6.49 5.95 5.51 5.20 4.92 5.07 5.28 5.62 5.55 5.53 5.65 6.28 10.91
-3.76 -1.54 1.33 3.39 4.02 4.29 4.46 4.44 4.44 4.29 4.20 4.41 4.76 5.55 6.80 8.33 7.81 7.65 7.30 6.08 6.52 6.69 6.80 6.91 6.60 6.25 5.90 5.88 3.50 2.18 2.07 3.30 2.55 -0.25 -2.88 -2.98 -1.75 4.08 7.28 0.20 -0.05 1.71 6.25 14.78 22.22 24.88 25.04 25.04 24.98 24.54 21.32 12.67 7.93 6.77 7.41 7.76 7.54 6.91 6.12 5.27 4.64 4.81 5.30 5.79 5.79 5.69 5.65 5.93 6.19
MSLP
1028.88 1028.80 1028.68 1028.56 1028.44 1028.28 1028.16 1028.08 1027.96 1027.88 1027.72 1027.68 1027.60 1027.52 1027.44 1027.32 1027.24 1027.16 1027.08 1026.96 1026.84 1026.72 1026.68 1026.60 1026.52 1026.44 1026.24 1026.04 1025.88 1025.72 1025.56 1025.40 1025.24 1025.12 1025.00 1024.88 1024.72 1024.60 1024.48 1024.44 1024.36 1024.16 1023.96 1023.72 1023.44 1023.16 1022.92 1022.76 1022.60 1022.44 1022.36 1022.32 1022.32 1022.32 1022.32 1022.32 1022.24 1022.16 1022.00 1021.88 1021.84 1021.80 1021.72 1021.68 1021.72 1021.72 1021.68 1021.60 1021.56
1029.08 1028.96 1028.88 1028.72 1028.60 1028.48 1028.36 1028.28 1028.16 1028.08 1027.96 1027.88 1027.80 1027.72 1027.64 1027.56 1027.48 1027.40 1027.28 1027.20 1027.12 1027.00 1026.88 1026.72 1026.68 1026.56 1026.40 1026.20 1026.00 1025.88 1025.72 1025.60 1025.44 1025.28 1025.16 1025.04 1024.96 1024.88 1024.76 1024.64 1024.56 1024.40 1024.20 1023.96 1023.68 1023.44 1023.28 1023.12 1022.96 1022.88 1022.84 1022.84 1022.80 1022.72 1022.72 1022.68 1022.60 1022.48 1022.36 1022.32 1022.28 1022.20 1022.16 1022.16 1022.28 1022.28 1022.20 1022.12 1022.04
1029.24 1029.12 1029.00 1028.92 1028.84 1028.72 1028.60 1028.44 1028.40 1028.32 1028.16 1028.08 1028.00 1027.92 1027.88 1027.76 1027.68 1027.60 1027.56 1027.44 1027.36 1027.20 1027.08 1026.96 1026.84 1026.72 1026.60 1026.40 1026.24 1026.08 1025.92 1025.80 1025.64 1025.48 1025.32 1025.24 1025.16 1025.00 1024.88 1024.84 1024.72 1024.60 1024.44 1024.24 1024.00 1023.84 1023.68 1023.52 1023.40 1023.36 1023.36 1023.32 1023.28 1023.24 1023.16 1023.12 1023.00 1022.88 1022.76 1022.76 1022.72 1022.64 1022.60 1022.68 1022.80 1022.76 1022.72 1022.60 1022.56
1029.40 1029.28 1029.20 1029.12 1029.04 1028.92 1028.80 1028.72 1028.60 1028.44 1028.36 1028.24 1028.16 1028.08 1028.00 1027.96 1027.88 1027.80 1027.72 1027.64 1027.52 1027.40 1027.28 1027.16 1027.04 1026.92 1026.76 1026.64 1026.48 1026.32 1026.16 1026.00 1025.84 1025.68 1025.52 1025.44 1025.28 1025.16 1025.08 1025.00 1024.92 1024.84 1024.72 1024.60 1024.40 1024.20 1024.04 1023.88 1023.80 1023.76 1023.80 1023.80 1023.72 1023.72 1023.68 1023.60 1023.48 1023.32 1023.28 1023.24 1023.16 1023.12 1023.12 1023.16 1023.28 1023.28 1023.24 1023.16 1023.04
1029.56 1029.44 1029.36 1029.28 1029.16 1029.08 1029.00 1028.88 1028.72 1028.64 1028.52 1028.40 1028.32 1028.28 1028.16 1028.12 1028.08 1028.00 1027.88 1027.76 1027.72 1027.60 1027.52 1027.40 1027.28 1027.12 1027.00 1026.84 1026.68 1026.52 1026.32 1026.16 1026.00 1025.88 1025.76 1025.64 1025.56 1025.44 1025.40 1025.28 1025.24 1025.20 1025.08 1024.92 1024.72 1024.56 1024.40 1024.24 1024.16 1024.16 1024.16 1024.16 1024.16 1024.16 1024.16 1024.12 1023.96 1023.84 1023.72 1023.68 1023.60 1023.56 1023.56 1023.64 1023.72 1023.80 1023.76 1023.68 1023.52
1029.72 1029.64 1029.52 1029.44 1029.32 1029.20 1029.12 1029.00 1028.88 1028.76 1028.64 1028.56 1028.48 1028.44 1028.36 1028.28 1028.20 1028.16 1028.08 1028.00 1027.88 1027.80 1027.68 1027.52 1027.44 1027.28 1027.16 1027.00 1026.88 1026.72 1026.56 1026.40 1026.32 1026.16 1026.04 1025.92 1025.88 1025.76 1025.72 1025.64 1025.60 1025.52 1025.40 1025.24 1025.04 1024.88 1024.72 1024.60 1024.60 1024.60 1024.60 1024.60 1024.64 1024.72 1024.68 1024.56 1024.44 1024.32 1024.20 1024.08 1024.04 1024.00 1024.00 1024.08 1024.20 1024.24 1024.20 1024.08 1023.96
1029.88 1029.80 1029.68 1029.60 1029.44 1029.36 1029.24 1029.12 1029.00 1028.88 1028.76 1028.72 1028.64 1028.60 1028.52 1028.44 1028.36 1028.32 1028.28 1028.16 1028.08 1027.96 1027.84 1027.72 1027.60 1027.48 1027.36 1027.24 1027.08 1026.96 1026.80 1026.72 1026.60 1026.44 1026.36 1026.32 1026.20 1026.12 1026.04 1026.00 1025.92 1025.80 1025.68 1025.56 1025.36 1025.24 1025.16 1025.04 1025.00 1025.00 1025.04 1025.12 1025.16 1025.16 1025.12 1025.00 1024.88 1024.76 1024.60 1024.52 1024.44 1024.44 1024.44 1024.52 1024.56 1024.60 1024.52 1024.40 1024.24
1029.96 1029.88 1029.84 1029.72 1029.60 1029.52 1029.40 1029.28 1029.16 1029.04 1028.96 1028.88 1028.80 1028.72 1028.68 1028.60 1028.48 1028.44 1028.36 1028.28 1028.16 1028.12 1028.00 1027.88 1027.80 1027.68 1027.56 1027.44 1027.28 1027.16 1027.08 1026.96 1026.88 1026.72 1026.64 1026.60 1026.48 1026.44 1026.32 1026.24 1026.16 1026.04 1025.96 1025.84 1025.72 1025.60 1025.48 1025.40 1025.36 1025.40 1025.44 1025.44 1025.48 1025.48 1025.44 1025.32 1025.16 1025.00 1024.88 1024.84 1024.80 1024.80 1024.80 1024.84 1024.88 1024.84 1024.76 1024.64 1024.48
1030.08 1030.00 1029.92 1029.84 1029.72 1029.60 1029.56 1029.44 1029.28 1029.20 1029.16 1029.04 1029.00 1028.88 1028.80 1028.72 1028.60 1028.52 1028.44 1028.40 1028.32 1028.24 1028.16 1028.04 1027.96 1027.84 1027.72 1027.60 1027.48 1027.40 1027.28 1027.20 1027.12 1027.00 1026.96 1026.88 1026.76 1026.68 1026.60 1026.48 1026.40 1026.32 1026.20 1026.08 1026.00 1025.88 1025.80 1025.72 1025.72 1025.72 1025.72 1025.68 1025.72 1025.68 1025.60 1025.48 1025.32 1025.16 1025.12 1025.08 1025.12 1025.12 1025.12 1025.16 1025.12 1025.08 1025.00 1024.88 1024.80
1030.24 1030.16 1030.04 1029.92 1029.84 1029.72 1029.60 1029.48 1029.40 1029.32 1029.28 1029.20 1029.12 1029.00 1028.92 1028.80 1028.72 1028.68 1028.60 1028.52 1028.44 1028.36 1028.28 1028.16 1028.08 1027.96 1027.88 1027.72 1027.68 1027.60 1027.52 1027.44 1027.36 1027.28 1027.20 1027.12 1027.00 1026.96 1026.88 1026.80 1026.72 1026.60 1026.48 1026.40 1026.32 1026.20 1026.12 1026.04 1026.00 1026.00 1025.96 1025.92 1025.88 1025.88 1025.76 1025.64 1025.52 1025.44 1025.40 1025.44 1025.48 1025.44 1025.44 1025.44 1025.36 1025.28 1025.24 1025.20 1025.16
1030.40 1030.28 1030.16 1030.08 1029.96 1029.84 1029.68 1029.60 1029.52 1029.44 1029.40 1029.32 1029.28 1029.16 1029.04 1028.96 1028.88 1028.80 1028.72 1028.60 1028.60 1028.48 1028.40 1028.32 1028.16 1028.08 1028.00 1027.88 1027.84 1027.76 1027.72 1027.64 1027.56 1027.48 1027.44 1027.36 1027.28 1027.20 1027.16 1027.08 1026.96 1026.84 1026.72 1026.64 1026.56 1026.48 1026.44 1026.36 1026.32 1026.28 1026.24 1026.16 1026.12 1026.04 1026.00 1025.88 1025.80 1025.76 1025.76 1025.80 1025.76 1025.72 1025.68 1025.64 1025.60 1025.52 1025.48 1025.52 1025.60
1030.44 1030.36 1030.28 1030.16 1030.04 1029.92 1029.80 1029.72 1029.64 1029.60 1029.52 1029.44 1029.40 1029.32 1029.24 1029.16 1029.04 1028.96 1028.84 1028.72 1028.72 1028.64 1028.52 1028.40 1028.32 1028.20 1028.16 1028.04 1028.00 1027.92 1027.88 1027.84 1027.80 1027.72 1027.60 1027.56 1027.48 1027.40 1027.32 1027.28 1027.16 1027.08 1027.00 1026.88 1026.84 1026.76 1026.72 1026.64 1026.60 1026.56 1026.48 1026.44 1026.36 1026.32 1026.28 1026.20 1026.12 1026.12 1026.08 1026.04 1026.00 1025.96 1025.92 1025.88 1025.84 1025.80 1025.84 1025.96 1026.08
1030.56 1030.44 1030.32 1030.24 1030.12 1030.00 1029.92 1029.84 1029.76 1029.72 1029.64 1029.60 1029.52 1029.44 1029.36 1029.28 1029.16 1029.04 1028.96 1028.88 1028.80 1028.76 1028.68 1028.52 1028.44 1028.32 1028.24 1028.16 1028.16 1028.12 1028.04 1028.00 1027.96 1027.88 1027.84 1027.76 1027.72 1027.60 1027.52 1027.44 1027.36 1027.28 1027.20 1027.16 1027.04 1027.00 1026.92 1026.88 1026.84 1026.80 1026.72 1026.72 1026.72 1026.64 1026.60 1026.52 1026.44 1026.44 1026.40 1026.32 1026.32 1026.28 1026.24 1026.24 1026.28 1026.28 1026.32 1026.40 1026.56
1030.60 1030.52 1030.44 1030.32 1030.20 1030.12 1030.04 1030.00 1029.92 1029.84 1029.76 1029.68 1029.60 1029.56 1029.44 1029.36 1029.28 1029.16 1029.08 1029.00 1028.92 1028.88 1028.76 1028.68 1028.56 1028.44 1028.32 1028.28 1028.24 1028.20 1028.16 1028.16 1028.12 1028.08 1028.00 1027.92 1027.88 1027.80 1027.72 1027.64 1027.52 1027.44 1027.40 1027.32 1027.28 1027.16 1027.16 1027.08 1027.04 1027.00 1027.00 1026.96 1026.96 1026.92 1026.88 1026.84 1026.76 1026.72 1026.72 1026.72 1026.72 1026.68 1026.72 1026.72 1026.72 1026.76 1026.76 1026.84 1026.92
1030.64 1030.60 1030.52 1030.44 1030.32 1030.24 1030.16 1030.16 1030.04 1029.96 1029.88 1029.76 1029.72 1029.60 1029.52 1029.44 1029.36 1029.28 1029.16 1029.08 1029.00 1028.88 1028.84 1028.76 1028.68 1028.56 1028.44 1028.36 1028.32 1028.32 1028.32 1028.32 1028.28 1028.28 1028.20 1028.16 1028.04 1028.00 1027.88 1027.84 1027.72 1027.64 1027.60 1027.56 1027.44 1027.36 1027.32 1027.28 1027.24 1027.20 1027.16 1027.16 1027.16 1027.16 1027.08 1027.08 1027.04 1027.04 1027.04 1027.04 1027.04 1027.08 1027.12 1027.16 1027.16 1027.16 1027.16 1027.16 1027.16
1030.76 1030.68 1030.60 1030.48 1030.44 1030.36 1030.32 1030.28 1030.16 1030.04 1029.96 1029.88 1029.76 1029.68 1029.60 1029.52 1029.44 1029.28 1029.20 1029.12 1029.00 1028.92 1028.88 1028.84 1028.80 1028.72 1028.60 1028.48 1028.44 1028.44 1028.48 1028.44 1028.44 1028.44 1028.40 1028.36 1028.28 1028.16 1028.08 1028.00 1027.96 1027.88 1027.80 1027.72 1027.64 1027.60 1027.52 1027.44 1027.44 1027.44 1027.36 1027.32 1027.32 1027.28 1027.28 1027.24 1027.24 1027.28 1027.28 1027.28 1027.32 1027.32 1027.36 1027.40 1027.40 1027.36 1027.32 1027.28 1027.16
1030.88 1030.80 1030.72 1030.60 1030.56 1030.48 1030.44 1030.36 1030.28 1030.16 1030.04 1029.96 1029.84 1029.72 1029.68 1029.60 1029.44 1029.32 1029.20 1029.16 1029.04 1028.96 1028.88 1028.88 1028.84 1028.80 1028.72 1028.68 1028.64 1028.60 1028.60 1028.60 1028.60 1028.60 1028.60 1028.56 1028.48 1028.40 1028.28 1028.20 1028.12 1028.04 1028.00 1027.92 1027.84 1027.76 1027.72 1027.68 1027.64 1027.60 1027.56 1027.52 1027.48 1027.44 1027.44 1027.44 1027.44 1027.44 1027.44 1027.44 1027.44 1027.44 1027.48 1027.52 1027.52 1027.44 1027.32 1027.20 1027.08
1031.00 1030.92 1030.80 1030.72 1030.68 1030.60 1030.52 1030.44 1030.32 1030.24 1030.16 1030.04 1029.92 1029.84 1029.72 1029.60 1029.44 1029.32 1029.20 1029.16 1029.04 1029.00 1028.96 1028.88 1028.88 1028.88 1028.88 1028.84 1028.76 1028.72 1028.72 1028.72 1028.72 1028.72 1028.72 1028.72 1028.60 1028.56 1028.44 1028.36 1028.24 1028.16 1028.08 1028.08 1028.00 1027.96 1027.92 1027.88 1027.80 1027.76 1027.72 1027.68 1027.64 1027.60 1027.60 1027.60 1027.60 1027.60 1027.56 1027.52 1027.56 1027.52 1027.52 1027.52 1027.48 1027.44 1027.28 1027.20 1027.04
1031.16 1031.04 1030.96 1030.88 1030.84 1030.72 1030.64 1030.52 1030.40 1030.32 1030.20 1030.12 1030.00 1029.88 1029.72 1029.60 1029.44 1029.32 1029.20 1029.16 1029.08 1029.04 1029.00 1028.96 1028.96 1028.96 1028.96 1028.92 1028.88 1028.84 1028.84 1028.88 1028.88 1028.88 1028.84 1028.76 1028.72 1028.68 1028.60 1028.52 1028.40 1028.24 1028.16 1028.16 1028.12 1028.08 1028.04 1028.00 1027.96 1027.92 1027.88 1027.84 1027.80 1027.76 1027.76 1027.72 1027.72 1027.72 1027.72 1027.68 1027.68 1027.64 1027.60 1027.56 1027.48 1027.44 1027.36 1027.24 1027.12
1031.28 1031.24 1031.16 1031.04 1030.96 1030.88 1030.72 1030.60 1030.48 1030.40 1030.28 1030.16 1030.00 1029.88 1029.72 1029.60 1029.48 1029.36 1029.28 1029.20 1029.16 1029.08 1029.04 1029.04 1029.08 1029.04 1029.00 1029.00 1028.96 1028.96 1029.00 1029.00 1029.00 1028.96 1028.92 1028.88 1028.80 1028.76 1028.72 1028.64 1028.52 1028.36 1028.32 1028.28 1028.20 1028.16 1028.16 1028.12 1028.08 1028.00 1028.00 1028.00 1027.92 1027.88 1027.88 1027.88 1027.88 1027.84 1027.84 1027.84 1027.80 1027.76 1027.72 1027.68 1027.60 1027.48 1027.40 1027.28 1027.20
1031.44 1031.36 1031.28 1031.16 1031.08 1030.96 1030.84 1030.72 1030.60 1030.44 1030.32 1030.16 1030.08 1029.96 1029.80 1029.64 1029.52 1029.44 1029.36 1029.28 1029.24 1029.16 1029.16 1029.16 1029.16 1029.16 1029.16 1029.12 1029.12 1029.16 1029.16 1029.12 1029.04 1029.04 1029.00 1028.96 1028.92 1028.88 1028.88 1028.72 1028.60 1028.48 1028.40 1028.40 1028.36 1028.32 1028.28 1028.20 1028.16 1028.16 1028.16 1028.12 1028.08 1028.04 1028.00 1028.00 1027.96 1027.92 1027.92 1027.92 1027.88 1027.88 1027.80 1027.76 1027.72 1027.60 1027.56 1027.44 1027.36
1031.52 1031.44 1031.36 1031.28 1031.16 1031.00 1030.88 1030.76 1030.60 1030.48 1030.32 1030.20 1030.12 1030.00 1029.84 1029.72 1029.60 1029.52 1029.44 1029.40 1029.28 1029.28 1029.28 1029.28 1029.28 1029.28 1029.28 1029.28 1029.28 1029.28 1029.24 1029.16 1029.16 1029.16 1029.12 1029.04 1029.00 1028.96 1028.88 1028.84 1028.68 1028.56 1028.48 1028.44 1028.44 1028.36 1028.32 1028.32 1028.28 1028.28 1028.28 1028.28 1028.28 1028.20 1028.16 1028.12 1028.12 1028.08 1028.00 1028.00 1027.96 1027.92 1027.88 1027.84 1027.80 1027.72 1027.72 1027.60 1027.52
1031.60 1031.52 1031.44 1031.32 1031.20 1031.08 1030.92 1030.84 1030.68 1030.56 1030.44 1030.32 1030.16 1030.08 1030.00 1029.88 1029.72 1029.60 1029.56 1029.44 1029.40 1029.36 1029.36 1029.36 1029.36 1029.40 1029.44 1029.44 1029.44 1029.40 1029.36 1029.28 1029.28 1029.20 1029.16 1029.16 1029.12 1029.04 1029.00 1028.88 1028.76 1028.68 1028.60 1028.48 1028.44 1028.40 1028.40 1028.36 1028.40 1028.40 1028.44 1028.48 1028.48 1028.44 1028.44 1028.36 1028.32 1028.28 1028.20 1028.16 1028.08 1028.00 1027.96 1027.88 1027.84 1027.80 1027.76 1027.72 1027.64
1031.68 1031.60 1031.52 1031.40 1031.24 1031.16 1031.00 1030.88 1030.76 1030.68 1030.60 1030.48 1030.36 1030.24 1030.12 1030.00 1029.88 1029.72 1029.64 1029.60 1029.56 1029.56 1029.56 1029.48 1029.48 1029.48 1029.48 1029.48 1029.48 1029.52 1029.48 1029.48 1029.44 1029.36 1029.28 1029.28 1029.24 1029.16 1029.12 1029.00 1028.92 1028.80 1028.72 1028.52 1028.32 1028.32 1028.40 1028.48 1028.56 1028.60 1028.60 1028.64 1028.68 1028.68 1028.68 1028.64 1028.60 1028.56 1028.48 1028.36 1028.28 1028.20 1028.12 1028.00 1027.96 1027.88 1027.84 1027.80 1027.80
1031.76 1031.68 1031.56 1031.44 1031.32 1031.24 1031.16 1031.00 1030.96 1030.88 1030.80 1030.64 1030.48 1030.36 1030.24 1030.16 1030.04 1029.96 1029.88 1029.80 1029.72 1029.72 1029.72 1029.68 1029.64 1029.60 1029.60 1029.60 1029.60 1029.60 1029.60 1029.64 1029.64 1029.60 1029.56 1029.44 1029.36 1029.28 1029.24 1029.16 1029.08 1028.96 1028.80 1028.48 1028.28 1028.24 1028.32 1028.52 1028.64 1028.76 1028.84 1028.84 1028.88 1028.88 1028.84 1028.80 1028.80 1028.76 1028.72 1028.68 1028.60 1028.48 1028.36 1028.28 1028.16 1028.04 1028.00 1028.00 1027.96
1031.80 1031.72 1031.60 1031.52 1031.44 1031.32 1031.24 1031.16 1031.12 1031.04 1030.92 1030.80 1030.60 1030.48 1030.44 1030.32 1030.28 1030.16 1030.12 1030.04 1030.00 1029.96 1029.92 1029.88 1029.88 1029.80 1029.76 1029.72 1029.72 1029.72 1029.72 1029.72 1029.76 1029.76 1029.72 1029.72 1029.60 1029.48 1029.40 1029.32 1029.20 1029.08 1028.88 1028.60 1028.44 1028.40 1028.40 1028.56 1028.72 1028.88 1029.00 1029.04 1029.08 1029.04 1029.00 1029.00 1029.00 1029.00 1028.96 1028.88 1028.88 1028.80 1028.72 1028.60 1028.48 1028.36 1028.32 1028.24 1028.20
1031.88 1031.76 1031.72 1031.60 1031.52 1031.44 1031.36 1031.28 1031.20 1031.16 1031.04 1030.96 1030.84 1030.72 1030.60 1030.52 1030.44 1030.40 1030.32 1030.32 1030.24 1030.16 1030.12 1030.12 1030.08 1030.00 1029.96 1030.00 1029.96 1029.92 1029.92 1029.92 1029.92 1029.88 1029.88 1029.88 1029.80 1029.72 1029.60 1029.48 1029.36 1029.16 1028.92 1028.68 1028.60 1028.56 1028.56 1028.68 1028.80 1029.00 1029.16 1029.28 1029.28 1029.28 1029.28 1029.28 1029.24 1029.20 1029.16 1029.16 1029.08 1029.04 1029.00 1028.92 1028.88 1028.76 1028.64 1028.56 1028.52
1032.00 1031.92 1031.84 1031.72 1031.64 1031.56 1031.44 1031.36 1031.28 1031.24 1031.16 1031.12 1031.00 1030.92 1030.80 1030.68 1030.60 1030.56 1030.52 1030.52 1030.44 1030.44 1030.36 1030.36 1030.32 1030.28 1030.20 1030.20 1030.20 1030.16 1030.16 1030.16 1030.12 1030.08 1030.08 1030.00 1029.96 1029.88 1029.80 1029.64 1029.56 1029.28 1029.00 1028.76 1028.72 1028.72 1028.72 1028.76 1028.88 1029.08 1029.24 1029.36 1029.44 1029.44 1029.48 1029.44 1029.44 1029.40 1029.40 1029.36 1029.28 1029.28 1029.24 1029.20 1029.16 1029.04 1029.00 1028.92 1028.84
1032.08 1032.00 1031.92 1031.84 1031.76 1031.68 1031.56 1031.48 1031.44 1031.36 1031.32 1031.24 1031.16 1031.04 1030.92 1030.80 1030.72 1030.72 1030.72 1030.72 1030.68 1030.68 1030.68 1030.60 1030.56 1030.48 1030.48 1030.48 1030.44 1030.44 1030.40 1030.32 1030.32 1030.32 1030.28 1030.16 1030.08 1030.00 1029.92 1029.80 1029.72 1029.56 1029.28 1029.00 1028.88 1028.88 1028.88 1028.92 1029.04 1029.16 1029.28 1029.44 1029.60 1029.64 1029.64 1029.64 1029.60 1029.60 1029.60 1029.56 1029.52 1029.48 1029.44 1029.36 1029.32 1029.28 1029.24 1029.16 1029.08
1032.16 1032.16 1032.04 1031.96 1031.88 1031.76 1031.72 1031.60 1031.52 1031.44 1031.36 1031.28 1031.24 1031.16 1031.04 1030.96 1030.96 1030.92 1030.92 1030.88 1030.88 1030.88 1030.88 1030.80 1030.80 1030.76 1030.72 1030.72 1030.72 1030.64 1030.60 1030.52 1030.52 1030.48 1030.44 1030.40 1030.32 1030.24 1030.12 1029.96 1029.88 1029.72 1029.56 1029.24 1029.08 1029.04 1029.04 1029.08 1029.20 1029.32 1029.44 1029.56 1029.72 1029.76 1029.80 1029.80 1029.84 1029.84 1029.76 1029.72 1029.72 1029.64 1029.60 1029.56 1029.52 1029.44 1029.44 1029.36 1029.28
1032.24 1032.20 1032.16 1032.04 1032.00 1031.88 1031.76 1031.68 1031.60 1031.48 1031.40 1031.32 1031.32 1031.28 1031.24 1031.16 1031.16 1031.16 1031.12 1031.08 1031.04 1030.96 1030.88 1030.88 1030.92 1030.96 1030.92 1030.88 1030.88 1030.84 1030.76 1030.68 1030.64 1030.68 1030.68 1030.64 1030.48 1030.40 1030.32 1030.20 1030.12 1030.00 1029.76 1029.48 1029.24 1029.16 1029.20 1029.28 1029.36 1029.48 1029.60 1029.72 1029.88 1029.92 1029.96 1030.00 1030.00 1030.00 1029.96 1029.92 1029.88 1029.84 1029.76 1029.72 1029.68 1029.60 1029.56 1029.48 1029.44
1032.32 1032.28 1032.20 1032.16 1032.08 1031.96 1031.84 1031.72 1031.64 1031.56 1031.44 1031.44 1031.40 1031.40 1031.40 1031.36 1031.32 1031.28 1031.20 1031.16 1031.12 1031.04 1031.00 1031.00 1031.04 1031.08 1031.04 1031.00 1031.00 1030.96 1030.88 1030.88 1030.80 1030.80 1030.80 1030.80 1030.72 1030.64 1030.52 1030.40 1030.32 1030.16 1029.96 1029.64 1029.40 1029.28 1029.28 1029.40 1029.52 1029.64 1029.76 1029.88 1030.00 1030.12 1030.16 1030.20 1030.16 1030.16 1030.12 1030.08 1030.00 1029.96 1029.88 1029.84 1029.76 1029.72 1029.68 1029.60 1029.56
1032.32 1032.32 1032.32 1032.20 1032.12 1032.00 1031.88 1031.80 1031.72 1031.64 1031.56 1031.52 1031.44 1031.48 1031.52 1031.48 1031.44 1031.32 1031.28 1031.16 1031.16 1031.16 1031.16 1031.16 1031.16 1031.20 1031.20 1031.16 1031.12 1031.04 1031.00 1031.00 1030.96 1030.92 1030.88 1030.88 1030.88 1030.80 1030.68 1030.56 1030.44 1030.32 1030.08 1029.76 1029.52 1029.40 1029.40 1029.52 1029.64 1029.76 1029.88 1029.96 1030.12 1030.28 1030.32 1030.32 1030.32 1030.32 1030.24 1030.20 1030.16 1030.04 1030.00 1029.96 1029.88 1029.80 1029.72 1029.72 1029.60
1032.36 1032.36 1032.32 1032.24 1032.16 1032.04 1031.96 1031.88 1031.80 1031.72 1031.64 1031.60 1031.56 1031.52 1031.52 1031.52 1031.48 1031.44 1031.36 1031.24 1031.20 1031.24 1031.28 1031.28 1031.24 1031.24 1031.20 1031.16 1031.20 1031.16 1031.12 1031.04 1031.04 1031.04 1031.04 1031.00 1031.00 1030.88 1030.76 1030.64 1030.48 1030.32 1030.04 1029.80 1029.60 1029.44 1029.44 1029.56 1029.72 1029.84 1029.96 1030.04 1030.24 1030.36 1030.44 1030.44 1030.40 1030.36 1030.36 1030.32 1030.24 1030.16 1030.04 1029.96 1029.92 1029.88 1029.80 1029.72 1029.64
1032.36 1032.36 1032.32 1032.32 1032.20 1032.12 1032.00 1031.96 1031.88 1031.84 1031.76 1031.72 1031.64 1031.60 1031.56 1031.52 1031.52 1031.52 1031.44 1031.32 1031.28 1031.28 1031.32 1031.28 1031.28 1031.24 1031.20 1031.20 1031.20 1031.20 1031.16 1031.12 1031.12 1031.12 1031.12 1031.08 1031.00 1030.96 1030.80 1030.68 1030.48 1030.28 1030.04 1029.88 1029.64 1029.48 1029.48 1029.60 1029.72 1029.88 1030.00 1030.16 1030.32 1030.40 1030.44 1030.44 1030.44 1030.44 1030.44 1030.32 1030.28 1030.20 1030.08 1030.00 1029.96 1029.88 1029.80 1029.72 1029.64
1032.36 1032.36 1032.32 1032.32 1032.24 1032.16 1032.08 1032.04 1032.00 1031.92 1031.88 1031.84 1031.76 1031.72 1031.64 1031.60 1031.52 1031.52 1031.44 1031.36 1031.36 1031.36 1031.36 1031.32 1031.32 1031.28 1031.28 1031.28 1031.20 1031.16 1031.12 1031.16 1031.16 1031.20 1031.16 1031.12 1031.08 1031.00 1030.88 1030.72 1030.56 1030.32 1030.08 1029.92 1029.72 1029.56 1029.52 1029.60 1029.76 1029.88 1030.04 1030.24 1030.36 1030.44 1030.44 1030.44 1030.48 1030.48 1030.44 1030.36 1030.28 1030.20 1030.12 1030.00 1029.92 1029.88 1029.76 1029.68 1029.60
1032.36 1032.36 1032.32 1032.32 1032.24 1032.16 1032.16 1032.12 1032.04 1032.00 1032.00 1031.92 1031.88 1031.84 1031.72 1031.64 1031.60 1031.52 1031.44 1031.40 1031.44 1031.44 1031.40 1031.36 1031.32 1031.32 1031.32 1031.32 1031.28 1031.20 1031.16 1031.20 1031.24 1031.24 1031.20 1031.16 1031.12 1031.08 1031.00 1030.84 1030.64 1030.44 1030.24 1030.00 1029.72 1029.60 1029.56 1029.60 1029.72 1029.92 1030.08 1030.24 1030.36 1030.44 1030.44 1030.44 1030.48 1030.44 1030.44 1030.36 1030.32 1030.20 1030.12 1030.00 1029.92 1029.84 1029.72 1029.64 1029.48
1032.32 1032.32 1032.32 1032.32 1032.28 1032.20 1032.16 1032.12 1032.12 1032.08 1032.04 1032.00 1031.92 1031.84 1031.76 1031.72 1031.64 1031.56 1031.44 1031.44 1031.44 1031.44 1031.44 1031.40 1031.36 1031.36 1031.32 1031.32 1031.28 1031.28 1031.28 1031.28 1031.28 1031.24 1031.24 1031.20 1031.16 1031.16 1031.04 1030.88 1030.72 1030.56 1030.36 1030.08 1029.80 1029.64 1029.60 1029.60 1029.68 1029.88 1030.04 1030.20 1030.32 1030.40 1030.44 1030.44 1030.44 1030.44 1030.44 1030.36 1030.32 1030.20 1030.12 1030.00 1029.92 1029.84 1029.72 1029.60 1029.32
1032.28 1032.28 1032.28 1032.28 1032.28 1032.20 1032.16 1032.16 1032.12 1032.08 1032.00 1032.00 1031.92 1031.88 1031.80 1031.72 1031.64 1031.56 1031.44 1031.44 1031.44 1031.48 1031.48 1031.44 1031.44 1031.40 1031.32 1031.32 1031.32 1031.36 1031.32 1031.28 1031.32 1031.32 1031.28 1031.28 1031.24 1031.16 1031.08 1030.96 1030.84 1030.68 1030.44 1030.16 1029.84 1029.68 1029.60 1029.60 1029.60 1029.72 1029.96 1030.16 1030.24 1030.32 1030.32 1030.36 1030.40 1030.40 1030.36 1030.32 1030.32 1030.20 1030.08 1030.00 1029.88 1029.80 1029.72 1029.60 1029.24
1032.24 1032.28 1032.28 1032.28 1032.24 1032.20 1032.16 1032.16 1032.08 1032.00 1032.00 1031.96 1031.92 1031.88 1031.80 1031.72 1031.64 1031.52 1031.44 1031.44 1031.48 1031.44 1031.44 1031.48 1031.44 1031.44 1031.40 1031.36 1031.36 1031.40 1031.36 1031.36 1031.32 1031.36 1031.36 1031.28 1031.24 1031.04 1030.96 1031.04 1030.92 1030.76 1030.52 1030.16 1029.88 1029.72 1029.68 1029.60 1029.56 1029.64 1029.88 1030.12 1030.16 1030.16 1030.20 1030.24 1030.32 1030.32 1030.32 1030.28 1030.24 1030.16 1030.08 1029.96 1029.88 1029.80 1029.72 1029.56 1029.32
1032.24 1032.24 1032.20 1032.20 1032.16 1032.16 1032.16 1032.08 1032.00 1031.92 1031.88 1031.88 1031.88 1031.84 1031.76 1031.68 1031.60 1031.56 1031.52 1031.52 1031.52 1031.48 1031.44 1031.44 1031.44 1031.44 1031.44 1031.44 1031.44 1031.44 1031.44 1031.40 1031.32 1031.32 1031.36 1031.32 1031.24 1031.08 1031.00 1031.16 1031.00 1030.84 1030.60 1030.32 1030.00 1029.80 1029.72 1029.64 1029.56 1029.52 1029.72 1030.08 1030.12 1030.12 1030.12 1030.16 1030.16 1030.24 1030.24 1030.20 1030.16 1030.12 1030.04 1029.92 1029.80 1029.72 1029.64 1029.56 1029.44
Wind_Speed
6 6 6 5 5 5 4 5 5 5 5 5 6 6 6 6 6 6 6 6 6 6 5 5 6 7 8 9 10 10 10 10 11 11 12 13 12 13 13 12 12 12 12 12 11 11 10 11 10 9 8 9 9 9 9 9 9 10 10 10 10 10 11 13 13 13 13 12 9
6 6 6 6 5 5 4 5 5 5 5 5 5 5 6 6 6 6 6 7 6 6 6 5 6 8 9 10 10 10 10 10 11 11 11 12 12 12 12 11 12 12 12 12 12 10 10 11 10 9 8 8 9 9 9 9 9 10 11 12 10 9 10 11 11 12 11 11 10
6 6 6 6 6 5 5 5 5 5 5 5 5 5 5 5 5 6 6 6 6 6 6 6 7 8 10 10 10 10 10 11 11 11 11 11 12 13 12 12 12 13 13 12 11 10 10 10 9 9 8 8 9 9 9 10 10 10 11 12 9 8 8 9 10 10 9 9 10
6 6 6 6 6 6 5 5 5 5 5 4 4 4 5 5 5 5 5 6 6 7 7 7 7 8 9 9 10 10 11 11 12 12 12 12 13 14 14 13 13 13 13 12 12 11 11 10 8 8 8 10 10 10 9 8 9 9 9 9 8 8 9 8 9 8 8 8 9
6 6 6 6 6 6 5 5 5 5 5 4 4 4 4 4 4 5 5 5 6 6 7 7 7 7 8 9 10 11 11 12 12 12 12 13 13 14 14 14 14 13 12 12 12 12 11 10 8 8 8 9 9 9 9 9 9 8 8 7 8 8 8 8 8 8 7 7 8
5 6 6 6 6 6 5 5 5 5 4 4 4 4 4 4 4 5 5 5 6 6 7 8 8 8 8 9 9 10 10 11 11 11 12 12 12 13 14 14 14 13 12 13 13 12 11 10 8 8 8 8 9 10 10 10 9 8 8 7 8 8 8 8 7 7 8 9 9
5 5 6 6 6 6 5 5 5 5 5 4 5 5 5 4 4 5 5 5 5 6 6 7 8 8 8 8 9 9 9 10 10 11 12 11 11 12 13 13 13 13 13 13 13 12 11 10 8 7 8 7 7 9 10 10 9 8 8 8 7 7 8 8 7 7 9 11 12
5 5 5 5 6 6 5 5 5 5 5 5 5 6 5 5 5 5 5 5 5 5 6 6 7 8 8 8 8 8 9 9 10 10 10 10 11 12 12 12 13 13 13 13 13 12 11 9 8 8 7 7 7 8 10 11 10 10 10 9 8 8 8 8 7 8 9 12 13
5 5 5 5 5 5 5 5 5 5 5 5 6 6 6 5 5 5 4 4 5 5 5 5 7 7 8 8 8 8 8 8 9 9 9 10 11 11 11 11 12 12 12 12 13 13 12 9 8 8 8 7 7 8 10 11 12 12 11 10 9 9 9 8 9 9 10 11 13
5 5 5 6 6 6 5 5 5 5 6 6 6 6 6 6 5 5 4 3 4 4 4 5 6 7 7 8 7 7 7 7 7 8 8 9 9 10 10 10 11 11 11 11 11 12 11 10 9 9 9 9 9 10 11 12 12 12 11 9 9 10 10 10 9 10 10 10 12
5 5 5 5 5 6 5 5 5 5 5 6 6 6 6 6 6 5 4 3 3 4 4 4 5 6 6 6 6 6 6 6 6 7 8 8 8 9 9 10 10 11 11 11 10 10 10 9 10 10 11 10 10 10 11 11 12 12 11 9 9 10 11 11 10 10 9 10 10
5 5 5 5 5 5 5 5 5 5 5 5 6 6 6 5 5 5 4 4 3 3 3 4 4 5 5 5 5 5 5 5 6 6 7 7 7 8 8 9 10 10 11 10 10 9 9 9 10 10 11 10 9 9 10 11 11 11 11 11 10 11 11 11 11 9 8 8 8
5 5 5 5 5 6 6 5 5 5 5 5 5 5 5 5 5 5 5 4 4 3 3 3 3 3 4 4 4 4 5 5 5 5 6 6 7 7 7 8 9 10 10 10 9 9 9 10 10 10 10 10 9 9 10 11 11 11 11 11 12 11 11 11 10 9 8 8 7
5 5 5 5 6 5 5 5 5 5 5 6 5 5 4 5 5 5 5 4 4 3 3 3 3 3 3 3 3 4 4 5 5 5 6 6 6 7 7 7 8 9 9 9 9 9 10 10 10 10 10 10 10 10 10 10 10 11 11 11 11 11 11 10 9 8 8 8 7
6 6 6 6 6 5 5 5 4 5 5 6 5 5 4 4 4 4 4 4 4 3 3 3 3 3 3 3 3 4 4 5 5 6 6 6 6 6 6 7 7 8 8 8 8 9 9 10 10 10 10 10 10 10 10 10 10 10 10 10 10 10 9 9 8 7 7 7 6
6 6 6 6 6 6 5 5 4 4 5 5 5 5 5 4 4 4 4 4 3 3 2 2 3 3 4 4 4 4 5 5 6 6 6 6 6 6 6 6 6 7 7 8 8 8 9 9 9 9 9 10 10 10 10 10 10 10 10 9 9 9 8 8 7 7 6 6 6
6 6 6 6 6 6 6 6 5 5 5 6 6 6 5 5 4 4 4 4 3 3 2 2 2 3 4 4 4 4 5 5 6 6 5 5 5 6 6 5 5 6 6 6 7 8 8 9 8 9 9 9 9 9 10 9 9 9 9 9 9 8 8 7 7 6 6 7 7
6 6 6 6 7 7 7 6 6 6 6 6 6 6 5 5 5 4 4 4 3 3 3 2 2 2 3 4 4 4 5 6 6 5 5 5 5 5 5 5 5 5 5 5 6 7 8 8 8 8 8 9 9 9 9 9 9 9 9 9 8 8 8 7 7 6 6 7 7
6 6 6 7 7 7 7 7 7 6 6 6 6 6 6 5 5 5 5 4 4 3 3 2 2 3 3 4 4 4 5 5 6 6 5 5 5 5 5 5 5 5 5 5 5 6 7 7 8 8 8 8 9 9 9 8 8 8 8 8 8 8 8 7 7 7 7 7 7
6 6 6 6 6 6 7 7 6 6 6 5 6 6 7 6 6 6 5 5 4 3 3 2 3 3 3 4 5 5 5 5 5 5 6 5 5 6 5 5 5 5 5 5 5 5 5 6 7 7 8 8 8 8 8 8 8 8 7 7 7 7 7 7 7 7 8 8 8
5 5 5 5 5 6 6 6 6 6 6 6 7 7 7 7 6 6 6 5 4 3 3 3 3 3 4 4 5 5 4 4 5 5 5 5 5 5 5 5 5 5 5 5 4 4 5 5 6 7 7 8 8 8 8 8 8 8 8 7 7 7 7 7 7 8 8 8 8
4 4 4 5 5 5 5 5 5 6 6 6 7 7 7 7 7 6 5 5 4 3 3 4 4 4 4 4 4 4 4 4 4 4 4 5 5 5 5 5 5 5 5 4 4 3 4 4 5 6 7 7 8 8 8 8 8 8 8 8 8 8 8 8 7 7 7 8 8
4 4 4 4 4 5 6 6 6 6 7 7 8 8 7 7 7 6 5 5 5 4 4 4 4 4 4 4 4 4 4 5 5 5 5 5 5 5 6 5 6 6 6 4 3 2 2 3 5 6 6 6 7 7 8 8 8 8 8 9 9 9 9 8 8 8 8 8 8
5 4 4 4 5 5 6 6 7 7 7 8 8 8 7 7 7 6 6 6 6 5 5 4 4 4 4 5 5 5 5 5 6 6 6 6 6 6 6 6 6 6 5 4 4 4 4 3 4 5 6 6 6 6 6 7 7 7 8 8 9 9 9 9 9 9 8 8 8
5 5 5 5 5 5 6 6 7 7 7 7 7 7 7 7 6 6 5 6 6 5 5 4 4 4 4 5 5 5 5 5 5 5 6 7 7 6 6 6 5 5 5 5 10 10 9 7 6 5 5 5 5 6 6 6 7 7 7 7 8 8 8 9 9 9 9 9 8
5 5 5 5 5 5 6 6 6 6 6 6 7 7 6 6 5 5 5 5 5 5 5 5 5 5 5 4 4 5 5 4 4 5 5 6 6 6 6 6 5 4 4 8 12 13 12 12 11 8 6 5 5 5 6 6 6 6 6 7 7 7 8 8 9 9 9 8 8
4 5 5 5 5 5 5 5 5 5 6 7 7 7 6 5 5 4 4 4 4 4 4 4 4 4 4 4 4 4 4 4 4 4 4 4 5 5 6 5 5 4 5 9 12 12 12 13 13 11 8 5 5 5 5 5 6 6 6 6 6 6 7 7 7 8 8 8 8
4 4 5 5 5 5 5 5 5 6 6 6 6 6 5 5 5 4 4 3 4 4 4 4 4 4 4 3 4 4 4 4 4 4 4 4 4 4 5 5 5 6 7 11 12 12 12 12 13 12 10 7 5 4 5 5 5 5 5 5 5 6 6 6 6 6 7 7 7
3 4 4 5 5 5 5 5 6 6 6 5 5 5 5 5 5 4 4 4 4 4 3 3 3 3 3 3 3 3 3 3 4 4 4 4 4 4 4 4 5 7 9 11 11 11 11 11 12 12 11 9 5 4 3 4 4 4 4 4 4 4 5 5 5 5 5 6 6
3 3 4 4 4 5 5 5 5 5 5 4 4 4 5 5 5 5 4 4 3 3 2 2 3 3 3 3 3 3 3 3 3 3 3 3 4 4 4 4 5 7 9 11 9 10 10 10 11 11 11 10 6 4 3 3 3 3 4 4 4 4 4 4 4 5 5 5 5
2 3 3 4 4 4 4 4 5 5 5 4 4 4 4 5 4 4 3 2 2 2 2 2 3 3 3 3 3 3 3 3 3 2 2 2 3 3 4 4 5 7 9 10 8 8 9 9 10 10 10 9 6 4 3 2 2 3 3 3 3 3 3 3 3 4 4 4 4
2 2 2 3 4 4 4 5 5 5 5 5 4 4 4 3 3 2 2 2 2 2 2 2 2 3 3 3 3 3 3 3 3 2 2 2 3 3 4 5 5 7 8 10 7 7 8 9 9 10 9 9 6 3 2 2 2 2 2 2 2 2 2 2 2 3 3 3 3
2 2 2 3 4 4 4 5 5 5 5 5 4 3 3 2 2 2 3 2 2 2 2 1 1 2 2 2 3 3 3 3 3 2 2 2 3 3 4 5 5 6 7 9 7 6 7 8 9 9 9 8 5 3 2 1 1 1 1 2 2 2 2 2 2 2 3 3 3
1 1 2 2 3 4 4 4 4 4 5 5 4 4 3 2 2 2 3 2 2 1 1 1 1 1 1 1 1 2 3 3 2 2 2 3 3 3 3 4 4 5 7 8 6 5 6 7 8 8 8 7 4 3 2 1 1 1 1 2 2 2 2 2 2 2 2 3 3
1 1 2 3 3 3 3 4 4 4 4 4 4 4 3 2 1 1 2 2 1 1 1 1 1 1 1 1 1 1 2 3 2 2 2 2 2 3 3 4 4 5 7 7 6 5 6 7 8 8 7 5 3 2 1 1 1 1 1 2 2 3 3 3 3 3 3 3 3
2 1 2 3 3 3 3 3 3 3 3 3 4 4 4 3 2 1 1 1 1 1 1 2 1 1 1 1 1 1 1 2 2 2 2 1 1 2 3 3 4 5 7 7 6 5 5 6 7 7 6 4 2 1 1 1 1 1 1 2 2 3 4 4 4 4 4 4 4
2 2 2 2 3 3 2 2 2 2 3 3 3 3 3 3 2 2 1 1 1 1 2 2 1 1 1 1 1 1 1 1 1 1 2 1 1 2 2 3 4 5 6 8 6 5 5 5 6 7 6 3 2 1 1 0 0 1 1 2 3 3 4 4 4 4 4 5 5
3 3 2 2 2 2 2 1 1 2 2 3 2 2 2 2 2 2 1 0 1 1 2 2 1 1 1 1 2 2 2 1 1 1 1 2 2 2 2 2 3 4 6 8 6 5 6 6 5 6 6 3 2 2 1 0 0 1 1 2 3 3 4 4 3 4 4 5 6
4 3 3 3 3 2 2 2 2 2 2 3 2 2 2 2 2 2 1 1 1 1 1 1 2 1 1 1 1 1 2 1 1 1 2 2 3 3 3 2 3 4 6 8 6 6 6 7 5 5 6 4 3 2 2 1 0 0 1 2 2 3 3 3 3 3 4 5 8
4 3 3 3 3 3 2 2 3 3 3 2 2 2 2 2 2 2 1 1 1 1 1 2 2 1 1 1 1 1 1 2 1 1 2 2 3 3 2 2 3 5 6 8 7 6 7 7 7 4 5 4 3 2 2 2 1 0 1 2 2 2 3 3 3 3 3 5 7
3 3 3 4 3 3 3 3 3 3 3 2 2 2 2 2 2 2 1 1 1 1 1 1 1 1 1 1 0 0 1 1 1 1 1 2 3 2 1 1 3 4 6 7 7 7 7 8 8 6 4 4 3 2 2 1 1 1 2 2 2 2 2 3 2 3 3 4 5
Wind_Direction
12 12 11 9 7 9 12 13 11 12 14 18 19 18 16 17 17 16 14 12 12 12 12 13 11 8 7 7 10 13 15 18 21 24 26 28 27 26 25 24 20 17 15 15 18 22 26 27 29 30 30 28 28 28 27 26 26 28 31 33 33 31 30 31 28 27 26 28 29
11 12 13 12 10 11 13 16 15 14 16 20 21 21 20 21 21 19 18 17 15 14 14 15 14 13 12 12 14 16 19 21 23 25 28 30 29 29 27 26 22 20 18 18 20 24 27 29 32 33 32 28 27 27 25 23 25 29 32 33 32 31 31 31 26 23 23 25 23
11 12 14 15 14 14 16 18 16 16 17 20 23 24 24 25 24 23 22 20 18 17 17 16 16 16 16 16 18 19 21 23 25 27 29 30 29 29 29 27 24 23 21 21 23 25 30 32 35 36 35 31 28 27 25 21 24 29 33 32 32 32 32 31 24 21 20 21 21
11 13 14 15 14 15 16 17 16 16 18 21 24 27 30 30 28 26 25 23 22 22 21 18 18 18 18 19 20 22 24 26 27 29 30 30 29 29 29 28 27 25 24 23 25 28 32 35 39 40 38 35 33 29 25 21 24 30 34 34 35 36 36 34 27 23 22 20 21
11 11 12 13 12 12 14 15 15 17 19 21 24 29 33 34 31 28 26 27 26 24 22 20 21 20 20 20 22 24 25 27 28 29 30 30 29 29 29 29 29 27 26 25 27 29 33 36 40 41 39 37 34 30 26 23 28 32 36 38 38 39 39 37 32 29 25 24 24
9 8 8 9 9 10 11 12 15 17 20 23 25 29 33 36 33 31 30 31 28 25 23 23 23 22 22 22 24 26 27 28 29 30 30 30 29 29 29 30 30 29 28 28 29 31 34 37 41 42 41 40 38 33 29 28 32 36 40 42 42 42 41 40 37 34 32 31 31
9 7 6 4 6 8 9 9 13 17 21 26 25 26 27 31 33 33 33 34 31 28 26 25 23 23 23 24 26 27 28 29 30 30 31 31 30 30 30 30 31 31 31 30 31 32 35 39 42 43 42 42 40 36 32 33 37 41 44 46 44 44 43 42 39 37 36 36 36
11 7 4 1 4 4 5 7 13 19 23 25 22 19 19 22 27 31 35 38 36 33 30 27 23 23 24 25 26 27 29 30 31 31 31 32 32 31 31 31 31 32 33 33 33 34 36 39 42 43 42 42 42 37 35 36 40 44 46 47 45 43 42 42 39 38 38 38 38
9 4 360 360 1 360 360 5 14 21 23 22 17 13 12 14 17 24 33 40 39 36 33 30 25 24 24 25 27 28 29 31 32 31 31 32 33 33 33 32 32 32 33 34 35 36 37 40 41 41 41 41 39 37 35 36 40 43 45 45 43 41 39 40 38 37 38 39 39
6 1 359 360 357 355 356 4 13 19 21 18 13 10 9 10 10 13 21 35 37 37 35 32 28 26 25 25 26 27 29 31 32 32 31 32 32 34 34 35 33 34 34 34 36 37 38 41 41 41 41 41 39 37 35 35 39 41 42 42 40 39 38 36 36 36 37 38 38
3 360 359 358 352 353 359 7 11 14 16 14 9 7 6 7 4 1 2 15 29 32 32 31 31 30 28 26 26 27 28 30 32 33 32 31 32 34 36 37 36 36 36 35 37 38 40 41 41 41 40 40 39 37 35 34 37 40 41 40 38 38 36 33 33 34 35 35 35
1 360 358 355 353 358 5 10 8 8 9 9 6 4 2 2 357 355 357 8 18 19 19 23 30 31 28 25 24 25 27 30 32 33 34 32 32 33 36 38 39 39 39 38 38 40 42 42 42 41 40 39 38 36 34 33 36 38 39 38 37 37 36 33 31 31 32 32 33
2 2 360 355 357 3 8 8 4 3 4 4 3 360 357 355 354 357 2 10 9 3 358 1 16 24 27 24 22 22 24 27 29 32 33 33 32 33 35 38 40 41 41 40 39 40 42 43 43 42 41 39 38 36 35 35 38 39 40 38 38 38 37 33 30 29 30 31 32
5 5 1 356 359 5 7 6 1 359 358 356 356 354 352 352 354 358 3 9 4 356 347 346 351 358 7 16 19 20 22 25 28 28 29 29 31 33 35 37 40 42 42 40 39 40 41 42 42 42 42 41 39 38 37 38 40 42 42 42 41 40 38 35 32 30 30 31 31
5 3 359 357 2 5 6 2 357 354 353 351 349 349 350 352 353 356 1 4 358 352 350 349 341 337 340 357 14 19 21 24 27 26 24 23 26 29 32 34 38 41 42 40 39 39 40 41 41 41 41 41 39 39 39 40 43 44 45 45 45 43 41 38 35 33 32 31 29
3 360 358 360 2 2 1 358 353 350 348 346 344 346 349 350 349 354 358 357 349 348 354 359 343 333 333 345 6 18 23 26 28 26 23 19 19 22 25 27 32 36 39 38 37 37 38 39 39 39 40 40 39 39 39 40 42 44 45 45 46 45 43 39 36 34 31 30 29
360 357 356 360 360 358 355 351 349 348 346 343 342 344 347 346 347 349 352 350 344 345 350 354 350 345 343 346 360 16 25 27 28 27 23 18 16 16 16 16 20 27 33 35 36 37 38 38 39 39 39 40 40 39 39 39 40 41 42 42 42 41 39 37 34 31 28 26 26
356 354 355 358 357 353 350 347 346 344 342 341 340 341 343 345 344 343 342 343 345 344 343 341 353 1 2 356 4 19 29 30 29 26 23 20 17 15 12 6 6 13 23 29 33 37 39 39 38 38 38 39 39 39 39 38 38 38 38 37 36 34 32 29 27 26 25 23 21
353 352 353 354 351 348 345 344 344 342 340 338 339 341 343 344 343 342 341 342 344 344 342 345 4 16 17 10 17 26 32 33 30 28 25 22 21 18 10 360 358 4 13 19 26 32 36 38 38 38 37 37 37 37 37 37 37 36 35 35 32 29 25 22 21 20 20 20 18
350 349 348 346 343 342 341 341 340 338 337 339 343 344 344 344 345 346 345 341 340 344 356 14 26 27 24 21 27 30 32 34 33 30 26 24 24 18 9 359 358 2 8 12 17 22 28 33 36 36 35 34 34 33 33 33 33 32 32 32 30 26 24 21 19 18 17 17 17
346 343 340 337 337 336 336 336 337 338 340 345 348 348 347 346 348 348 344 338 341 355 18 37 42 41 35 30 31 30 28 29 33 31 28 25 22 16 8 2 1 3 6 7 6 8 15 27 34 35 34 33 31 29 29 27 26 26 25 25 24 23 22 22 20 19 18 17 16
337 334 332 330 331 332 334 337 340 344 348 352 353 352 351 351 350 348 346 347 1 19 36 46 50 49 45 40 36 31 26 24 28 28 25 23 18 12 7 7 7 6 5 360 353 352 2 20 32 35 35 33 28 26 25 25 22 20 18 17 17 17 17 19 19 19 19 18 17
325 324 325 325 329 335 340 344 348 353 356 357 355 354 353 353 351 352 357 8 22 33 41 49 52 51 47 43 41 35 29 24 21 19 17 18 14 10 7 8 8 5 359 346 343 354 13 27 33 36 36 35 28 25 23 22 20 18 15 13 12 12 12 13 14 15 16 18 17
319 320 322 327 334 341 347 352 356 358 358 357 354 353 354 356 356 0 9 20 27 32 37 43 45 45 43 39 37 35 33 28 21 16 12 13 12 9 7 7 6 358 348 336 13 39 58 58 43 38 36 35 30 25 23 22 20 17 14 12 11 10 9 9 9 11 13 14 15
317 321 327 336 341 347 353 359 359 358 355 353 353 354 357 359 360 5 14 23 24 26 28 31 32 33 33 31 29 29 30 30 24 17 12 8 6 5 5 3 360 349 343 356 26 39 54 73 66 53 41 35 30 27 24 23 20 18 16 14 12 10 9 7 7 7 9 11 11
320 329 336 341 345 351 356 356 354 353 353 354 356 357 358 358 360 7 16 22 18 17 17 21 21 22 23 23 21 19 19 19 18 17 13 6 2 360 358 357 352 341 347 13 28 36 48 67 69 66 55 41 35 31 27 22 18 17 17 15 15 14 12 9 5 3 4 6 6
327 335 339 340 348 352 352 347 351 355 358 358 358 356 353 354 360 9 17 18 10 7 8 12 12 13 15 17 18 14 9 4 6 9 9 5 360 355 350 346 342 338 355 20 29 37 47 60 64 64 61 52 43 38 33 24 18 16 16 15 15 15 14 10 4 1 0 1 1
327 333 337 343 348 347 345 346 354 357 357 356 353 349 349 355 6 13 15 11 6 4 4 4 2 4 8 13 11 6 360 356 359 360 360 358 355 348 342 337 333 341 359 20 30 38 45 52 55 57 58 58 50 43 37 30 21 17 15 13 12 12 12 9 4 2 1 0 359
320 330 338 345 342 340 341 349 351 351 349 348 347 347 352 3 11 14 12 9 9 6 1 354 356 360 2 1 356 352 352 351 355 358 357 354 348 342 335 329 326 334 347 5 24 37 44 49 50 51 54 58 55 48 38 33 24 18 13 9 9 8 7 6 5 5 5 3 359
319 332 339 338 335 335 339 342 341 340 340 344 349 355 2 10 13 11 7 4 1 355 352 354 360 356 350 342 344 342 341 339 351 356 356 349 341 333 327 324 324 325 333 347 15 34 45 49 51 52 55 59 59 54 42 34 26 19 11 5 2 2 3 5 5 6 5 3 358
320 331 333 331 330 329 330 331 333 335 339 346 356 5 11 13 9 2 353 344 333 330 344 10 3 349 336 334 336 331 325 326 337 344 346 338 328 321 317 319 320 320 324 334 4 30 45 51 54 57 60 65 66 62 50 39 30 19 10 1 356 355 356 1 4 4 1 358 354
312 324 328 328 324 321 321 327 332 337 340 347 357 7 11 7 351 337 323 315 320 334 351 7 353 336 327 328 327 321 317 316 323 329 337 336 324 319 317 317 315 313 316 324 351 24 45 54 59 62 66 72 77 76 67 55 39 19 3 354 346 344 344 353 358 357 353 348 344
300 313 318 319 313 314 317 326 332 337 340 345 352 359 1 350 332 323 322 322 335 346 353 347 321 306 304 309 313 314 314 316 327 339 345 346 334 324 316 312 307 305 309 317 339 15 45 60 65 68 72 80 85 87 82 71 49 16 355 339 326 321 322 335 341 342 337 331 325
278 295 301 301 302 307 314 324 331 337 341 343 345 346 347 342 335 331 329 327 333 337 326 289 253 242 239 237 268 295 306 316 328 339 342 340 332 321 310 302 296 298 304 312 331 7 44 64 71 75 79 85 88 88 79 63 39 11 348 327 315 310 307 309 309 310 309 311 310
241 268 288 290 293 302 311 322 330 338 343 343 338 336 333 332 320 305 302 305 312 314 303 281 261 249 239 225 222 252 281 296 304 312 319 329 328 316 302 292 290 299 306 312 329 4 42 66 78 85 89 92 88 81 71 61 35 3 338 323 313 309 307 305 300 297 297 301 300
215 234 265 282 288 296 306 319 329 336 340 338 331 326 323 318 299 272 264 277 299 307 298 287 288 290 290 284 267 254 254 264 280 290 300 317 317 304 292 288 289 302 310 314 329 3 38 64 87 97 101 101 92 80 70 63 31 340 321 315 308 304 302 300 297 295 296 299 295
209 216 236 266 279 286 293 307 325 330 328 319 313 309 307 306 297 285 277 287 323 317 303 290 292 292 283 278 275 266 254 239 255 278 291 293 277 274 278 285 287 297 306 312 328 359 29 50 90 106 113 113 108 101 86 63 8 330 317 309 299 294 292 291 291 293 296 299 302
208 210 219 243 265 274 281 291 306 302 297 292 287 284 286 293 292 290 287 294 325 315 306 298 293 283 270 263 266 272 272 259 236 248 268 269 250 244 253 274 285 294 302 310 327 355 17 24 75 106 122 135 137 137 137 126 33 319 302 290 288 288 288 287 289 293 297 301 322
205 206 211 226 247 259 269 272 267 264 265 271 274 278 280 281 278 275 270 252 237 263 277 284 283 284 284 284 288 293 296 287 252 238 249 259 249 238 233 251 275 291 303 313 331 354 8 6 38 91 124 142 148 152 149 144 144 271 275 273 283 288 292 291 292 295 300 303 331
201 204 210 221 231 241 253 259 253 245 243 248 264 271 274 269 267 269 268 254 237 236 245 256 272 288 305 317 315 311 307 302 278 252 249 262 264 257 242 237 269 287 303 318 336 353 3 360 15 57 112 140 151 154 149 139 132 279 282 272 279 291 297 297 295 298 304 305 325
195 200 210 221 225 229 236 249 249 243 234 230 240 246 253 260 267 272 275 267 255 246 245 248 268 294 321 343 348 338 312 308 294 277 268 275 286 294 294 253 277 290 304 322 338 351 358 358 1 18 64 135 147 151 141 121 80 326 299 282 278 289 302 309 309 309 312 312 315